DW9349 Santa Fe TX US current weather conditions

sailwx.info

Wind from 205 at 3 knots gusting 10

Air temperature 32.2° C
Dewpoint 27.2° C

Last reported at 2020-Jul-06 19:10 UTC.
Time now 2020-Jul-06 19:53 UTC

Location: N 29°22' W 095°08'.
View on Google Maps.

See reports from other nearby stations

  
Tides and Currents Weather Stations Pressure Air Temp Water Temp Dewpoint Dewpoint Depression Visibility Wind Speed Wind Dir Waves Ship Positions
date/time (UTC)wind fromknots sea level pressurealtimeterstation pressurevisibilityair tempwater tempwave heightnotes
2020-Jul-06 19:10 205 3 gusting 10 32.2
2020-Jul-06 19:05 204 3 gusting 10 32.2
2020-Jul-06 19:00 205 3 gusting 10 31.7
2020-Jul-06 18:55 196 3 gusting 9 31.7
2020-Jul-06 18:50 193 3 gusting 9 31.7
2020-Jul-06 18:45 192 3 gusting 9 31.1
2020-Jul-06 18:40 196 3 gusting 9 31.1
2020-Jul-06 18:35 196 3 gusting 8 31.1
2020-Jul-06 18:30 199 3 gusting 9 31.1
2020-Jul-06 18:25 195 2 gusting 9 31.7
2020-Jul-06 18:20 195 2 gusting 8 31.7
2020-Jul-06 18:15 175 3 gusting 10 31.7
2020-Jul-06 18:10 173 4 gusting 10 32.2
2020-Jul-06 18:05 204 4 gusting 11 32.2
2020-Jul-06 18:00 211 4 gusting 11 32.2
2020-Jul-06 17:55 208 4 gusting 7 32.8
2020-Jul-06 17:50 207 4 gusting 8 32.8
2020-Jul-06 17:40 225 4 gusting 9 32.2
2020-Jul-06 17:35 228 3 gusting 11 32.2
2020-Jul-06 17:30 227 3 gusting 11 32.2
2020-Jul-06 17:25 235 4 gusting 10 32.2
2020-Jul-06 17:20 233 4 gusting 10 32.2
2020-Jul-06 17:15 232 4 gusting 8 32.2
2020-Jul-06 17:10 229 3 gusting 9 32.2
2020-Jul-06 17:05 228 3 gusting 9 32.2
2020-Jul-06 17:00 234 4 gusting 9 32.2
2020-Jul-06 16:55 242 4 gusting 9 32.2
2020-Jul-06 16:50 236 4 gusting 11 32.2
2020-Jul-06 16:45 233 4 gusting 11 32.2
2020-Jul-06 16:40 233 3 gusting 8 32.2
2020-Jul-06 16:35 229 3 gusting 10 32.2
2020-Jul-06 16:30 226 3 gusting 10 31.7
2020-Jul-06 16:25 244 2 gusting 7 31.1
2020-Jul-06 16:20 255 2 gusting 7 31.1
2020-Jul-06 16:15 257 2 gusting 6 31.1
2020-Jul-06 16:10 251 2 gusting 7 31.1
2020-Jul-06 16:05 236 2 gusting 7 31.1
2020-Jul-06 16:00 241 2 gusting 6 30.6
2020-Jul-06 15:55 243 2 gusting 6 30.6
2020-Jul-06 15:50 241 2 gusting 6 30.6
2020-Jul-06 15:45 246 2 gusting 6 30.6
2020-Jul-06 15:40 237 2 gusting 6 30.0
2020-Jul-06 15:35 237 2 gusting 6 30.0
2020-Jul-06 15:30 248 2 gusting 6 30.0
2020-Jul-06 15:25 251 2 gusting 7 30.0
2020-Jul-06 15:20 245 2 gusting 7 30.6
2020-Jul-06 15:15 239 2 gusting 5 30.6
2020-Jul-06 15:10 238 2 gusting 6 30.6
2020-Jul-06 15:05 242 2 gusting 6 30.6
2020-Jul-06 15:00 256 2 gusting 7 30.0
2020-Jul-06 14:55 260 1 gusting 7 30.0
2020-Jul-06 14:50 241 1 gusting 5 30.0
2020-Jul-06 14:45 239 1 gusting 5 30.0
2020-Jul-06 14:40 254 1 gusting 5 30.0
2020-Jul-06 14:35 256 1 gusting 6 29.4
2020-Jul-06 14:30 258 1 gusting 6 29.4
2020-Jul-06 14:25 263 0 gusting 4 29.4
2020-Jul-06 14:20 266 0 gusting 4 28.9
2020-Jul-06 14:15 272 28.9
2020-Jul-06 14:10 28.9
2020-Jul-06 14:05 257 28.9
2020-Jul-06 13:55 250 0 gusting 2 28.9
2020-Jul-06 13:50 241 0 gusting 3 28.3
2020-Jul-06 13:45 239 0 gusting 4 28.3
2020-Jul-06 13:40 229 0 gusting 6 28.3
2020-Jul-06 13:35 215 0 gusting 6 28.3
2020-Jul-06 13:30 211 28.3
2020-Jul-06 13:25 28.3
2020-Jul-06 13:20 28.3
2020-Jul-06 13:15 230 27.8
2020-Jul-06 13:10 237 27.8
2020-Jul-06 13:05 237 27.8
2020-Jul-06 13:00 237 0 gusting 2 27.8
2020-Jul-06 12:55 217 0 gusting 2 27.8
2020-Jul-06 12:50 209 0 gusting 2 27.8
2020-Jul-06 12:45 205 0 gusting 3 27.2
2020-Jul-06 12:40 196 0 gusting 3 27.2
2020-Jul-06 12:35 192 0 gusting 5 27.2
2020-Jul-06 12:30 188 0 gusting 5 27.2
2020-Jul-06 12:25 181 0 gusting 5 27.2
2020-Jul-06 12:20 194 1 gusting 4 27.2
2020-Jul-06 12:15 198 1 gusting 4 27.2
2020-Jul-06 12:10 201 1 gusting 4 27.2
2020-Jul-06 12:05 198 1 gusting 4 27.2
2020-Jul-06 12:00 189 1 gusting 4 27.2
2020-Jul-06 11:55 193 1 gusting 6 27.2
2020-Jul-06 11:50 196 0 gusting 6 27.2
2020-Jul-06 11:45 199 0 gusting 5 27.2
2020-Jul-06 11:40 205 0 gusting 5 27.2
2020-Jul-06 11:35 195 0 gusting 5 27.2
2020-Jul-06 11:30 194 0 gusting 4 27.2
2020-Jul-06 11:25 208 0 gusting 3 27.2
2020-Jul-06 11:20 207 0 gusting 2 26.7
2020-Jul-06 11:15 207 0 gusting 3 27.2
2020-Jul-06 11:10 222 0 gusting 4 27.2
2020-Jul-06 11:05 219 0 gusting 4 27.2
2020-Jul-06 11:00 207 0 gusting 5 26.7
2020-Jul-06 10:55 202 0 gusting 5 26.7
2020-Jul-06 10:50 192 0 gusting 3 26.7
2020-Jul-06 10:45 190 0 gusting 4 26.7
2020-Jul-06 10:40 192 0 gusting 4 27.2
2020-Jul-06 10:35 190 0 gusting 4 27.2
2020-Jul-06 10:30 185 0 gusting 4 27.2
2020-Jul-06 10:25 190 1 gusting 5 27.2
2020-Jul-06 10:20 205 1 gusting 5 27.2
2020-Jul-06 10:15 205 1 gusting 5 27.2
2020-Jul-06 10:10 192 1 gusting 5 27.2
2020-Jul-06 10:05 184 1 gusting 5 27.2
2020-Jul-06 10:00 191 1 gusting 4 27.2
2020-Jul-06 09:55 196 1 gusting 5 27.2
2020-Jul-06 09:50 200 1 gusting 5 27.2
2020-Jul-06 09:45 204 1 gusting 5 27.2
2020-Jul-06 09:40 204 1 gusting 5 27.2
2020-Jul-06 09:35 195 1 gusting 5 27.2
2020-Jul-06 09:30 192 0 gusting 6 27.2
2020-Jul-06 09:25 197 0 gusting 6 27.2
2020-Jul-06 09:20 190 0 gusting 3 27.2
2020-Jul-06 09:15 198 0 gusting 3 27.2
2020-Jul-06 09:10 209 0 gusting 3 27.2
2020-Jul-06 09:05 206 0 gusting 3 27.2
2020-Jul-06 08:55 196 0 gusting 4 27.2
2020-Jul-06 08:50 186 0 gusting 4 27.2
2020-Jul-06 08:45 166 0 gusting 3 27.2
2020-Jul-06 08:40 171 0 gusting 4 27.2
2020-Jul-06 08:35 193 0 gusting 4 27.2
2020-Jul-06 08:30 199 0 gusting 4 27.2
2020-Jul-06 08:25 203 0 gusting 4 27.2
2020-Jul-06 08:20 202 0 gusting 4 27.2
2020-Jul-06 08:15 192 0 gusting 2 27.2
2020-Jul-06 08:10 201 0 gusting 2 27.2
2020-Jul-06 08:05 215 0 gusting 2 27.2
2020-Jul-06 08:00 211 0 gusting 3 27.2
2020-Jul-06 07:55 207 0 gusting 3 27.2
2020-Jul-06 07:50 204 0 gusting 4 27.2
2020-Jul-06 07:45 209 0 gusting 4 27.2
2020-Jul-06 07:40 212 0 gusting 3 27.2
2020-Jul-06 07:35 213 0 gusting 3 27.2
2020-Jul-06 07:30 218 0 gusting 3 27.2
2020-Jul-06 07:25 217 0 gusting 3 27.2
2020-Jul-06 07:20 215 0 gusting 3 27.2
2020-Jul-06 07:15 215 0 gusting 3 27.2
2020-Jul-06 07:10 208 0 gusting 3 27.2
2020-Jul-06 07:05 204 0 gusting 3 27.2
2020-Jul-06 07:00 208 0 gusting 3 27.2
2020-Jul-06 06:55 215 0 gusting 2 27.2
2020-Jul-06 06:50 215 0 gusting 2 27.2
2020-Jul-06 06:45 214 0 gusting 3 27.2
2020-Jul-06 06:40 212 0 gusting 4 27.2
2020-Jul-06 06:35 213 0 gusting 4 27.2
2020-Jul-06 06:30 211 0 gusting 5 27.2
2020-Jul-06 06:25 211 0 gusting 5 27.2
2020-Jul-06 06:20 210 0 gusting 4 27.2
2020-Jul-06 06:15 200 0 gusting 4 27.2
2020-Jul-06 06:10 201 0 gusting 2 27.2
2020-Jul-06 06:05 207 0 gusting 3 27.2
2020-Jul-06 06:00 201 27.2
2020-Jul-06 05:55 188 27.2
2020-Jul-06 05:50 201 0 gusting 2 27.2
2020-Jul-06 05:45 212 0 gusting 1 27.2
2020-Jul-06 05:40 222 0 gusting 2 27.2
2020-Jul-06 05:35 218 0 gusting 3 27.2
2020-Jul-06 05:30 212 0 gusting 3 27.2
2020-Jul-06 05:25 212 0 gusting 3 27.2
2020-Jul-06 05:20 211 0 gusting 3 27.2
2020-Jul-06 05:15 212 0 gusting 4 27.2
2020-Jul-06 05:10 210 0 gusting 4 27.2
2020-Jul-06 05:05 211 0 gusting 3 27.2
2020-Jul-06 05:00 209 0 gusting 4 27.2
2020-Jul-06 04:55 203 0 gusting 4 27.2
2020-Jul-06 04:50 204 0 gusting 4 27.2
2020-Jul-06 04:45 202 0 gusting 4 27.2
2020-Jul-06 04:40 196 0 gusting 4 27.2
2020-Jul-06 04:35 200 0 gusting 4 27.2
2020-Jul-06 04:30 201 0 gusting 4 27.2
2020-Jul-06 04:25 199 0 gusting 4 27.2
2020-Jul-06 04:20 204 0 gusting 4 27.2
2020-Jul-06 04:15 210 1 gusting 4 27.2
2020-Jul-06 04:10 211 1 gusting 5 27.2
2020-Jul-06 04:05 205 1 gusting 5 27.8
2020-Jul-06 04:00 198 0 gusting 5 27.8
2020-Jul-06 03:55 200 0 gusting 5 27.8
2020-Jul-06 03:50 203 0 gusting 4 27.8
2020-Jul-06 03:45 205 0 gusting 3 27.8
2020-Jul-06 03:40 202 0 gusting 4 27.8
2020-Jul-06 03:35 200 0 gusting 5 27.8
2020-Jul-06 03:30 203 0 gusting 5 27.8
2020-Jul-06 03:25 207 0 gusting 6 27.8
2020-Jul-06 03:20 204 0 gusting 6 27.8
2020-Jul-06 03:15 207 0 gusting 4 27.8
2020-Jul-06 03:10 212 1 gusting 4 27.8
2020-Jul-06 03:05 208 1 gusting 3 27.8
2020-Jul-06 03:00 204 1 gusting 5 27.8
2020-Jul-06 02:55 206 1 gusting 5 27.8
2020-Jul-06 02:50 206 1 gusting 6 27.8
2020-Jul-06 02:45 204 1 gusting 6 27.8
2020-Jul-06 02:40 210 1 gusting 5 27.8
2020-Jul-06 02:35 211 2 gusting 5 27.8
2020-Jul-06 02:30 208 2 gusting 5 27.8
2020-Jul-06 02:25 212 2 gusting 5 27.8
2020-Jul-06 02:20 215 2 gusting 5 27.8
2020-Jul-06 02:15 214 2 gusting 7 28.3
2020-Jul-06 02:10 209 2 gusting 7 28.3
2020-Jul-06 02:05 208 2 gusting 6 28.3
2020-Jul-06 02:00 204 2 gusting 6 28.3
2020-Jul-06 01:55 208 2 gusting 8 28.3
2020-Jul-06 01:50 215 2 gusting 8 28.3
2020-Jul-06 01:45 212 2 gusting 7 28.3
2020-Jul-06 01:40 210 2 gusting 7 28.3
2020-Jul-06 01:30 209 2 gusting 8 28.3
2020-Jul-06 01:25 208 2 gusting 8 28.3
2020-Jul-06 01:20 207 2 gusting 8 28.9
2020-Jul-06 01:15 203 2 gusting 10 28.9
2020-Jul-06 01:10 204 2 gusting 10 28.9
2020-Jul-06 01:05 203 2 gusting 6 28.9
2020-Jul-06 00:55 204 3 gusting 8 28.9
2020-Jul-06 00:50 204 3 gusting 6 29.4
2020-Jul-06 00:45 208 3 gusting 7 29.4
2020-Jul-06 00:40 206 3 gusting 7 29.4
2020-Jul-06 00:35 203 3 gusting 9 29.4
2020-Jul-06 00:30 204 3 gusting 9 29.4
2020-Jul-06 00:25 203 3 gusting 6 29.4
2020-Jul-06 00:20 196 3 gusting 9 29.4
2020-Jul-06 00:15 195 3 gusting 9 29.4
2020-Jul-06 00:10 199 4 gusting 9 29.4
2020-Jul-06 00:05 202 4 gusting 9 30.0
2020-Jul-06 00:00 202 4 gusting 9 30.0
2020-Jul-05 23:55 201 3 gusting 8 30.0
2020-Jul-05 23:50 197 3 gusting 10 30.0
2020-Jul-05 23:45 193 3 gusting 10 30.0
2020-Jul-05 23:40 200 3 gusting 8 30.0
2020-Jul-05 23:35 205 3 gusting 8 30.0
2020-Jul-05 23:30 201 3 gusting 8 30.0
2020-Jul-05 23:25 199 3 gusting 8 30.6
2020-Jul-05 23:20 197 3 gusting 8 30.6
2020-Jul-05 23:15 194 3 gusting 8 30.6
2020-Jul-05 23:10 196 2 gusting 7 30.6
2020-Jul-05 23:05 195 2 gusting 8 31.1
2020-Jul-05 23:00 194 1 gusting 9 31.1
2020-Jul-05 22:55 198 0 gusting 9 31.7
2020-Jul-05 22:50 198 0 gusting 6 32.2
2020-Jul-05 22:45 199 0 gusting 2 32.8
2020-Jul-05 22:40 212 0 gusting 3 32.8
2020-Jul-05 22:35 216 1 gusting 3 33.3
2020-Jul-05 22:30 214 1 gusting 3 33.3
2020-Jul-05 22:25 202 1 gusting 5 33.3
2020-Jul-05 22:20 224 1 gusting 5 33.3
2020-Jul-05 22:15 245 2 gusting 6 33.3
2020-Jul-05 22:10 230 2 gusting 6 33.3
2020-Jul-05 22:05 202 2 gusting 6 33.9
2020-Jul-05 22:00 203 2 gusting 6 34.4
2020-Jul-05 21:55 209 2 gusting 7 34.4
2020-Jul-05 21:50 197 0 gusting 7 34.4
2020-Jul-05 21:45 203 0 gusting 5 34.4
2020-Jul-05 21:35 252 0 gusting 3 34.4
2020-Jul-05 21:25 238 0 gusting 3 34.4
2020-Jul-05 21:20 225 0 gusting 3 34.4
2020-Jul-05 21:15 221 1 gusting 3 34.4
2020-Jul-05 21:10 190 1 gusting 4 34.4
2020-Jul-05 21:05 198 1 gusting 4 33.9
2020-Jul-05 21:00 217 1 gusting 4 33.9
2020-Jul-05 20:55 210 1 gusting 4 33.3
2020-Jul-05 20:50 218 1 gusting 5 33.3
2020-Jul-05 20:45 263 1 gusting 5 33.9
2020-Jul-05 20:40 266 1 gusting 6 33.3
2020-Jul-05 20:35 253 0 gusting 6 33.9
2020-Jul-05 20:30 263 0 gusting 4 33.3
2020-Jul-05 20:25 260 0 gusting 4 33.3
2020-Jul-05 20:20 255 1 gusting 4 33.9
2020-Jul-05 20:15 252 1 gusting 4 33.9
2020-Jul-05 20:10 222 1 gusting 3 33.3
2020-Jul-05 20:05 210 1 gusting 4 33.3
2020-Jul-05 20:00 247 1 gusting 6 33.3
2020-Jul-05 19:55 264 1 gusting 6 33.3
2020-Jul-05 19:50 263 1 gusting 4 33.3
2020-Jul-05 19:40 255 2 gusting 9 33.3
2020-Jul-05 19:35 256 3 gusting 9 33.3
2020-Jul-05 19:30 251 3 gusting 6 33.3
2020-Jul-05 19:25 251 3 gusting 6 33.3
2020-Jul-05 19:20 257 2 gusting 7 33.3
2020-Jul-05 19:15 259 2 gusting 9 33.3
2020-Jul-05 19:10 259 2 gusting 9 33.3
2020-Jul-05 19:05 265 2 gusting 8 33.3
2020-Jul-05 19:00 274 2 gusting 8 33.3
2020-Jul-05 18:55 267 2 gusting 7 33.3
2020-Jul-05 18:50 260 3 gusting 6 33.3
2020-Jul-05 18:45 254 3 gusting 6 32.8
2020-Jul-05 18:40 250 3 gusting 6 32.2
2020-Jul-05 18:35 254 4 gusting 9 32.2
2020-Jul-05 18:30 256 3 gusting 9 32.8
2020-Jul-05 18:25 253 3 gusting 8 32.8
2020-Jul-05 18:20 244 3 gusting 8 32.8
2020-Jul-05 18:15 241 3 gusting 7 32.2
2020-Jul-05 18:10 250 3 gusting 8 32.2
2020-Jul-05 18:05 247 2 gusting 8 32.2
2020-Jul-05 18:00 232 2 gusting 8 31.7
2020-Jul-05 17:55 230 2 gusting 6 32.2
2020-Jul-05 17:50 248 3 gusting 7 32.2
2020-Jul-05 17:45 260 2 gusting 8 32.2
2020-Jul-05 17:40 259 2 gusting 8 32.2
2020-Jul-05 17:35 250 2 gusting 9 32.2
2020-Jul-05 17:30 246 3 gusting 9 31.7
2020-Jul-05 17:25 242 3 gusting 8 31.7
2020-Jul-05 17:20 238 3 gusting 8 31.7
2020-Jul-05 17:15 242 3 gusting 7 31.7
2020-Jul-05 17:05 251 4 gusting 9 31.7
2020-Jul-05 17:00 248 4 gusting 9 31.7
2020-Jul-05 16:55 253 5 gusting 10 31.7
2020-Jul-05 16:50 259 5 gusting 10 31.7
2020-Jul-05 16:45 263 4 gusting 9 31.7
2020-Jul-05 16:40 254 4 gusting 9 31.1
2020-Jul-05 16:35 249 4 gusting 9 31.7
2020-Jul-05 16:30 247 4 gusting 9 31.7
2020-Jul-05 16:25 245 4 gusting 9 31.7
2020-Jul-05 16:20 254 4 gusting 10 31.1
2020-Jul-05 16:15 246 4 gusting 10 31.1
2020-Jul-05 16:10 235 4 gusting 10 31.1
2020-Jul-05 16:05 243 5 gusting 10 31.1
2020-Jul-05 16:00 241 5 gusting 10 30.6
2020-Jul-05 15:55 247 4 gusting 11 30.6
2020-Jul-05 15:50 257 4 gusting 11 30.6
2020-Jul-05 15:45 258 3 gusting 7 30.6
2020-Jul-05 15:40 251 3 gusting 9 30.6
2020-Jul-05 15:35 244 3 gusting 9 30.6
2020-Jul-05 15:30 249 3 gusting 8 30.6
2020-Jul-05 15:25 250 3 gusting 9 30.0
2020-Jul-05 15:20 245 3 gusting 9 30.0
2020-Jul-05 15:10 250 4 gusting 7 29.4
2020-Jul-05 15:05 251 4 gusting 12 29.4
2020-Jul-05 14:55 243 3 gusting 9 28.9
2020-Jul-05 14:50 244 3 gusting 8 28.9
2020-Jul-05 14:45 249 4 gusting 9 28.9
2020-Jul-05 14:40 254 4 gusting 9 28.9
2020-Jul-05 14:35 256 3 gusting 8 28.9
2020-Jul-05 14:30 255 3 gusting 9 28.9
2020-Jul-05 14:25 251 3 gusting 9 28.9
2020-Jul-05 14:20 242 3 gusting 10 29.4
2020-Jul-05 14:15 241 3 gusting 10 29.4
2020-Jul-05 14:10 250 3 gusting 8 28.9
2020-Jul-05 14:05 257 3 gusting 8 28.9
2020-Jul-05 14:00 254 3 gusting 7 28.9
2020-Jul-05 13:55 242 2 gusting 7 28.9
2020-Jul-05 13:50 251 2 gusting 7 28.3
2020-Jul-05 13:45 264 2 gusting 6 28.3
2020-Jul-05 13:40 260 1 gusting 6 28.3
2020-Jul-05 13:35 257 1 gusting 5 28.3
2020-Jul-05 13:30 257 1 gusting 5 27.8
2020-Jul-05 13:25 249 1 gusting 5 27.8
2020-Jul-05 13:20 247 1 gusting 5 27.8
2020-Jul-05 13:15 245 0 gusting 4 27.2
2020-Jul-05 13:10 240 0 gusting 4 27.2
2020-Jul-05 13:05 248 0 gusting 3 27.2
2020-Jul-05 13:00 261 0 gusting 3 26.7
2020-Jul-05 12:55 263 26.7
2020-Jul-05 12:50 264 26.7
2020-Jul-05 12:45 268 26.1
2020-Jul-05 12:40 26.1
2020-Jul-05 12:35 26.1
2020-Jul-05 12:30 25.6
2020-Jul-05 12:25 25.6
2020-Jul-05 12:20 25.0
2020-Jul-05 12:10 25.0
2020-Jul-05 12:05 24.4
2020-Jul-05 12:00 24.4
2020-Jul-05 11:55 24.4
2020-Jul-05 11:50 23.9
2020-Jul-05 11:45 23.9
2020-Jul-05 11:40 23.9
2020-Jul-05 11:35 23.9
2020-Jul-05 11:30 23.9
2020-Jul-05 11:25 23.9
2020-Jul-05 11:20 23.9
2020-Jul-05 11:15 24.4
2020-Jul-05 11:10 24.4
2020-Jul-05 11:05 24.4
2020-Jul-05 11:00 24.4
2020-Jul-05 10:55 24.4
2020-Jul-05 10:50 24.4
2020-Jul-05 10:45 24.4
2020-Jul-05 10:40 24.4
2020-Jul-05 10:35 24.4
2020-Jul-05 10:30 24.4
2020-Jul-05 10:25 24.4
2020-Jul-05 10:20 24.4
2020-Jul-05 10:15 24.4
2020-Jul-05 10:10 24.4
2020-Jul-05 10:05 24.4
2020-Jul-05 10:00 24.4
2020-Jul-05 09:55 24.4
2020-Jul-05 09:50 24.4
2020-Jul-05 09:45 24.4
2020-Jul-05 09:40 24.4
2020-Jul-05 09:35 24.4
2020-Jul-05 09:30 24.4
2020-Jul-05 09:25 24.4
2020-Jul-05 09:20 24.4
2020-Jul-05 09:15 24.4
2020-Jul-05 09:10 24.4
2020-Jul-05 09:05 24.4
2020-Jul-05 09:00 24.4
2020-Jul-05 08:55 24.4
2020-Jul-05 08:50 24.4
2020-Jul-05 08:45 24.4
2020-Jul-05 08:40 24.4
2020-Jul-05 08:35 24.4
2020-Jul-05 08:30 25.0
2020-Jul-05 08:25 25.0
2020-Jul-05 08:20 25.0
2020-Jul-05 08:15 25.0
2020-Jul-05 08:10 25.0
2020-Jul-05 08:05 25.0
2020-Jul-05 08:00 25.0
2020-Jul-05 07:55 25.0
2020-Jul-05 07:50 25.0
2020-Jul-05 07:45 25.0
2020-Jul-05 07:40 25.0
2020-Jul-05 07:35 25.0
2020-Jul-05 07:30 25.0
2020-Jul-05 07:25 25.0
2020-Jul-05 07:20 25.0
2020-Jul-05 07:15 25.0
2020-Jul-05 07:10 25.0
2020-Jul-05 07:05 25.0
2020-Jul-05 07:00 25.0
2020-Jul-05 06:55 25.0
2020-Jul-05 06:50 25.0
2020-Jul-05 06:45 25.0
2020-Jul-05 06:40 25.0
2020-Jul-05 06:35 25.0
2020-Jul-05 06:25 25.6
2020-Jul-05 06:20 25.6
2020-Jul-05 06:15 25.6
2020-Jul-05 06:10 25.6
2020-Jul-05 06:05 25.6
2020-Jul-05 06:00 25.6
2020-Jul-05 05:55 25.6
2020-Jul-05 05:50 25.6
2020-Jul-05 05:45 25.6
2020-Jul-05 05:40 25.6
2020-Jul-05 05:35 26.1
2020-Jul-05 05:30 26.1
2020-Jul-05 05:25 26.1
2020-Jul-05 05:20 26.1
2020-Jul-05 05:15 26.1
2020-Jul-05 05:10 26.1
2020-Jul-05 05:05 205 26.1
2020-Jul-05 05:00 211 26.1
2020-Jul-05 04:55 221 26.7
2020-Jul-05 04:50 224 26.7
2020-Jul-05 04:45 223 26.7
2020-Jul-05 04:40 26.7
2020-Jul-05 04:35 26.7
2020-Jul-05 04:30 207 26.7
2020-Jul-05 04:25 205 26.7
2020-Jul-05 04:20 213 0 gusting 2 26.7
2020-Jul-05 04:15 219 0 gusting 2 26.7
2020-Jul-05 04:10 225 0 gusting 3 26.7
2020-Jul-05 04:05 219 0 gusting 3 26.7
2020-Jul-05 04:00 211 0 gusting 2 26.7
2020-Jul-05 03:55 206 0 gusting 3 26.7
2020-Jul-05 03:50 209 0 gusting 4 27.2
2020-Jul-05 03:45 213 0 gusting 4 27.2
2020-Jul-05 03:40 221 0 gusting 3 27.2
2020-Jul-05 03:35 220 0 gusting 2 27.2
2020-Jul-05 03:30 219 0 gusting 3 27.2
2020-Jul-05 03:25 219 0 gusting 3 27.2
2020-Jul-05 03:20 211 0 gusting 5 27.2
2020-Jul-05 03:15 207 0 gusting 5 27.2
2020-Jul-05 03:10 210 0 gusting 4 27.2
2020-Jul-05 03:05 213 0 gusting 4 27.8
2020-Jul-05 03:00 214 1 gusting 3 27.8
2020-Jul-05 02:55 208 1 gusting 4 27.8
2020-Jul-05 02:50 210 1 gusting 6 27.8
2020-Jul-05 02:45 207 1 gusting 6 27.8
2020-Jul-05 02:40 205 0 gusting 5 27.8
2020-Jul-05 02:35 204 0 gusting 5 27.8
2020-Jul-05 02:30 201 0 gusting 5 27.8
2020-Jul-05 02:25 205 0 gusting 5 27.8
2020-Jul-05 02:20 207 0 gusting 4 28.3
2020-Jul-05 02:15 208 0 gusting 4 28.3
2020-Jul-05 02:10 212 0 gusting 5 28.3
2020-Jul-05 02:05 209 0 gusting 5 28.3
2020-Jul-05 02:00 206 0 gusting 5 28.3
2020-Jul-05 01:55 202 0 gusting 3 28.3
2020-Jul-05 01:50 201 0 gusting 3 28.3
2020-Jul-05 01:45 206 0 gusting 2 28.3
2020-Jul-05 01:40 192 0 gusting 3 28.3
2020-Jul-05 01:35 192 0 gusting 4 28.9
2020-Jul-05 01:30 195 0 gusting 4 28.9
2020-Jul-05 01:25 202 0 gusting 4 28.9
2020-Jul-05 01:20 205 28.9
2020-Jul-05 01:10 199 29.4
2020-Jul-05 01:05 196 0 gusting 3 29.4
2020-Jul-05 01:00 203 0 gusting 3 29.4
2020-Jul-05 00:55 207 1 gusting 5 30.0
2020-Jul-05 00:50 200 1 gusting 5 30.0
2020-Jul-05 00:45 200 1 gusting 5 30.0
2020-Jul-05 00:40 205 1 gusting 5 30.6
2020-Jul-05 00:35 197 1 gusting 5 30.6
2020-Jul-05 00:30 195 1 gusting 5 31.1
2020-Jul-05 00:25 197 1 gusting 5 31.1
2020-Jul-05 00:20 199 1 gusting 5 31.7
2020-Jul-05 00:15 199 2 gusting 7 31.7
2020-Jul-05 00:10 193 2 gusting 7 31.7
2020-Jul-05 00:05 195 2 gusting 7 31.7
2020-Jul-05 00:00 201 2 gusting 6 32.2
2020-Jul-04 23:50 200 2 gusting 6 32.2
2020-Jul-04 23:45 191 2 gusting 7 32.8
2020-Jul-04 23:40 200 2 gusting 7 32.8
2020-Jul-04 23:35 201 2 gusting 7 32.8
2020-Jul-04 23:30 194 2 gusting 6 33.3
2020-Jul-04 23:25 189 2 gusting 6 33.3
2020-Jul-04 23:20 188 2 gusting 6 33.3
2020-Jul-04 23:15 194 2 gusting 6 33.3
2020-Jul-04 23:10 193 2 gusting 7 33.3
2020-Jul-04 23:05 196 2 gusting 7 33.3
2020-Jul-04 22:55 199 2 gusting 7 33.3
2020-Jul-04 22:50 202 2 gusting 7 33.3
2020-Jul-04 22:45 196 2 gusting 7 33.9
2020-Jul-04 22:40 150 2 gusting 9 33.9
2020-Jul-04 22:35 126 2 gusting 9 33.3
2020-Jul-04 22:30 152 1 gusting 8 33.9
2020-Jul-04 22:25 197 1 gusting 6 34.4
2020-Jul-04 22:20 229 1 gusting 5 35.0
2020-Jul-04 22:10 244 1 gusting 7 35.0
2020-Jul-04 22:05 249 0 gusting 5 34.4
2020-Jul-04 22:00 249 0 gusting 5 35.0
2020-Jul-04 21:50 296 0 gusting 3 34.4
2020-Jul-04 21:45 294 0 gusting 2 34.4
2020-Jul-04 21:40 274 1 gusting 3 34.4
2020-Jul-04 21:35 266 1 gusting 5 34.4
2020-Jul-04 21:25 229 0 gusting 4 34.4
2020-Jul-04 21:20 239 0 gusting 4 34.4
2020-Jul-04 21:15 257 0 gusting 3 34.4
2020-Jul-04 21:10 253 1 gusting 5 34.4
2020-Jul-04 21:05 239 0 gusting 5 34.4
2020-Jul-04 21:00 173 0 gusting 4 34.4
2020-Jul-04 20:55 203 0 gusting 3 34.4
2020-Jul-04 20:50 232 0 gusting 5 34.4
2020-Jul-04 20:45 245 0 gusting 5 34.4
2020-Jul-04 20:40 243 0 gusting 4 34.4
2020-Jul-04 20:35 180 0 gusting 4 34.4
2020-Jul-04 20:25 187 35.0
2020-Jul-04 20:20 228 34.4
2020-Jul-04 20:10 276 0 gusting 1 33.9
2020-Jul-04 20:05 268 0 gusting 5 33.3
2020-Jul-04 20:00 254 1 gusting 5 33.3
2020-Jul-04 19:55 255 1 gusting 6 33.9
2020-Jul-04 19:50 253 1 gusting 6 33.9
2020-Jul-04 19:45 236 1 gusting 6 33.9
2020-Jul-04 19:40 275 1 gusting 6 33.9
2020-Jul-04 19:35 300 0 gusting 5 33.9
2020-Jul-04 19:30 243 0 gusting 5 33.9
2020-Jul-04 19:25 211 0 gusting 4 33.9
2020-Jul-04 19:20 260 0 gusting 4 33.9
2020-Jul-04 19:15 266 1 gusting 5 33.3
2020-Jul-04 19:10 261 1 gusting 5 33.3
2020-Jul-04 19:05 266 1 gusting 6 32.8
2020-Jul-04 19:00 270 1 gusting 6 32.8